Regional Weather Roundup
Issued by NWS

Home | Current Version | Previous Version | Text Only | Print | Product List | Glossary Off
Versions: 1 2 3 4 5 6 7 8 9 10 11 12 13 14 15 16 17 18 19 20 21 22 23 24 25 26 27 28 29 30 31 32 33 34 35 36 37 38 39 40 41 42 43 44 45 46 47 48 49 50

000
ASUS43 KLSX 020707
RWRMO

WEATHER SUMMARY FOR MISSOURI
NATIONAL WEATHER SERVICE SPRINGFIELD MO
200 AM CDT THU JUL 02 2015

NOTE: "FAIR" INDICATES FEW OR NO CLOUDS BELOW 12,000 FEET WITH NO
       SIGNIFICANT WEATHER AND/OR OBSTRUCTIONS TO VISIBILITY.
       CURRENT SKY AND/OR WEATHER CONDITIONS ARE NOT AVAILABLE FOR
       CHILLICOTHE AND FARMINGTON.

MOZ001>031-035>038-043-044-053-054-020800-
...NORTHERN AND WESTERN MISSOURI...

CITY           SKY/WX    TMP DP  RH WIND       PRES   REMARKS
KANSAS CTY INT MOCLDY    73  70  90 E9        29.86F
KANSAS C DTWN  MOCLDY    75  71  87 E13       29.83F
LEE`S SUMMIT   CLOUDY    73  70  90 NE7       29.85F
ST JOSEPH      CLOUDY    74  68  81 E8        29.88S
CHILLICOTHE      N/A     71  67  87 NE6       29.89F
KIRKSVILLE     MOCLDY    68  65  90 NE8       29.91F FOG

$$
MOZ066>068-077>081-088>096-101>105-020800-
...SOUTHWEST MISSOURI...

CITY           SKY/WX    TMP DP  RH WIND       PRES   REMARKS
SPRINGFIELD    TSTM      68  66  93 NE21G31   29.90R FOG
JOPLIN         CLOUDY    81  70  69 SW20G26   29.80F

$$
MOZ032>034-039>042-045>050-055>058-069>072-020800-
...CENTRAL MISSOURI...

CITY           SKY/WX    TMP DP  RH WIND       PRES   REMARKS
COLUMBIA       CLOUDY    71  70  96 NE7       29.87S
JEFFERSON CITY CLOUDY    72  70  93 CALM      29.86R
ROLLA          CLOUDY    69  68  96 SE3       29.86F
SEDALIA        CLOUDY    72  70  93 NE9       29.86R FOG
WHITEMAN AFB   PTCLDY    70  69  99 NE6       29.83F
WARRENSBURG    CLOUDY    70  68  94 CALM      29.84S
OSAGE BEACH    CLOUDY    70  66  88 S6        29.84S

$$
MOZ051-052-059>065-020800-
...EAST CENTRAL MISSOURI...

CITY           SKY/WX    TMP DP  RH WIND       PRES   REMARKS
ST LOUIS INTL  CLOUDY    73  70  88 NE6       29.85F
SPIRIT OF STL  CLOUDY    71  70  96 E3        29.83F
ST CHARLES     RAIN      72  71  97 NE7       29.85F FOG

$$
MOZ072>076-082>087-097>100-106>115-020800-
...SOUTH CENTRAL AND SOUTHEAST MISSOURI...

CITY           SKY/WX    TMP DP  RH WIND       PRES   REMARKS
CAPE GIRARDEAU HVY RAIN  73  70  90 N17G23    29.87R FOG
FARMINGTON     CLOUDY    66  64  94 S9        29.92F
WEST PLAINS    LGT RAIN  75  72  90 NE3       29.91S

$$


USA.gov is the U.S. government's official web portal to all federal, state and local government web resources and services.